BEIDOU-3 M24 (C46)

Last updated on Aug. 7, 2020, 5:36 a.m. UTC

1 44543U 19061B   20219.75413694  .00000011  00000-0  10000-3 0  9996
2 44543  54.8434 255.2202 0006368 290.8200 204.8245  1.86231708  5930
UTC
Height (km)
Latitude
Longitude
Inclination
Orbital Period
UTC large
Height (km)
Speed (km/s)
/
Latitude / Longitude
Inclination (degrees)
Orbital Period (minutes)
Azimuth
Elevation
Range (km)
Doppler Factor
iOS Compass Heading
iOS Angle

Next 30 passes for location: Hong Kong

Rise time Rise Azimuth (degrees) Set time Set Azimuth (degrees) Duration Max altitude (degrees)

No matching passes for this satellites